Regional Weather Roundup
Issued by NWS

Home | Current Version | Previous Version | Graphics & Text | Print | Product List | Glossary On
Versions: 1 2 3 4 5 6 7 8 9 10 11 12 13 14 15 16 17 18 19 20 21 22 23 24 25 26 27 28 29 30 31 32 33 34 35 36 37 38 39 40 41 42 43 44 45 46 47 48 49 50
000
ASUS43 KMPX 272201
RWRMN
WEATHER ROUNDUP FOR MINNESOTA
NATIONAL WEATHER SERVICE TWIN CITIES/CHANHASSEN MN
500 PM CDT SUN JUL 27 2014


NOTE: "FAIR" INDICATES FEW OR NO CLOUDS BELOW 12,000 FEET WITH NO
SIGNIFICANT WEATHER AND/OR OBSTRUCTIONS TO VISIBILITY. N/A MEANS
CURRENT SKY AND/OR WEATHER CONDITIONS ARE NOT AVAILABLE.

MNZ060>063-068>070-272300-
   Twin Cities Metro

CITY           SKY/WX    TMP DP  RH WIND       PRES   REMARKS
TWIN CITIES    PTSUNNY   76  59  55 N14       29.97R
ST PAUL        PTSUNNY   73  60  63 N15G21    29.97R
CRYSTAL        PTSUNNY   76  58  53 N16G30    29.97R
BLAINE         PTSUNNY   73  61  64 N14G23    29.99R
LAKEVILLE      CLOUDY    73  57  56 N13G23    29.97R
EDEN PRAIRIE   LGT RAIN  72  61  68 N14G24    29.97R
SOUTH ST PAUL  PTSUNNY   74  58  56 N16G22    29.97R
LAKE ELMO      PTSUNNY   70  61  73 N9G16     29.98S
$$
MNZ001>005-007-008-013>017-022>024-027-028-272300-
   Northwest Minnesota

CITY           SKY/WX    TMP DP  RH WIND       PRES   REMARKS
BEMIDJI        CLOUDY    65  57  73 N10G17    30.11R
HALLOCK        MOSUNNY   68  57  68 N8        30.16S
ROSEAU         PTSUNNY   68  57  68 N7        30.15R
WARROAD        CLOUDY    68  55  64 N7        30.14S
THIEF RVR FALL CLOUDY    64  57  77 N10       30.16R
CROOKSTON      CLOUDY    66  57  72 N10       30.16R
FOSSTON        CLOUDY    64  57  77 NW10      30.14R
DETROIT LAKES  PTSUNNY   64  59  82 NW16G22   30.14R
MOORHEAD       CLOUDY    66  61  82 N12       30.16R
PARK RAPIDS    PTSUNNY   71  61  70 NW15      30.08R
$$
MNZ006-009>011-018-025>026-272300-
   North Central Minnesota

CITY           SKY/WX    TMP DP  RH WIND       PRES   REMARKS
BAUDETTE       MOSUNNY   69  49  48 N13       30.12S
FLAG ISLAND    PTSUNNY   70  50  49 N13       30.12S
INTL FALLS     MOSUNNY   70  52  52 N8        30.08R
WASKISH        CLOUDY    66  55  68 CALM      30.11R
BIG FORK       PTSUNNY   64  54  68 N8G17     30.10R
LONGVILLE      PTSUNNY   68  57  68 N9        30.08R
GRAND RAPIDS   CLOUDY    64  55  72 N6        30.08R
CRANE LAKE     PTSUNNY   68  52  56 N7        30.07R
ORR            PTSUNNY   68  54  60 NW7       30.05R
COOK           CLOUDY    64  55  72 N5        30.07R
$$
MNZ012-019>021-037-272300-
   Northeast Minnesota

CITY           SKY/WX    TMP DP  RH WIND       PRES   REMARKS
DULUTH         LGT RAIN  58  55  90 E5        30.06R FOG
ELY            MOSUNNY   66  50  55 N6        30.04R
HIBBING        CLOUDY    65  54  67 N8        30.07R
EVELETH        PTSUNNY   64  54  68 NW7       30.06S
DULUTH HARBOR  CLOUDY    59  55  88 N6        30.06R
TWO HARBORS    CLOUDY    61  50  67 CALM      30.02R
SILVER BAY     SUNNY     63  57  82 CALM      30.01R
GRAND MARAIS     N/A     59  48  67 S5        29.97R
G MARAIS ARPRT   N/A     66  48  52 N14G20    30.02R
$$
MNZ029>031-032-039>041-046>048-054>057-064-272300-
   West Central Minnesota

CITY           SKY/WX    TMP DP  RH WIND       PRES   REMARKS
FERGUS FALLS   CLOUDY    66  55  68 N15       30.12S
WHEATON        CLOUDY    64  55  72 NW14G22     N/A
MORRIS         MOSUNNY   72  59  64 NW22      30.11R
ALEXANDRIA     PTSUNNY   72  58  61 NW18G25   30.10R
ELBOW LAKE     CLOUDY    68  58  72 NW18G25   30.11S
WADENA         LGT RAIN  63  61  94 N8        30.09R
GLENWOOD       SUNNY     72  61  68 NW20G26   30.09R
APPLETON       MOSUNNY   72  57  60 NW16G26   30.11R
BENSON         CLOUDY    70  57  64 N20G28    30.10R
ORTONVILLE     CLOUDY    66  55  68 NW14G22   30.14R
MADISON        SUNNY     72  61  68 NW13      30.13R
WILLMAR        FAIR      73  57  56 NW18G28   30.08R
$$
MNZ033>034-036-042>043-049>051-058-059-272300-
   Central Minnesota

CITY           SKY/WX    TMP DP  RH WIND       PRES   REMARKS
ST CLOUD       CLOUDY    75  57  53 N12G18    30.01R
SAUK CENTRE    MOCLDY    73  58  60 NW17G23   30.06R
PAYNESVILLE    PTSUNNY   71  58  62 W14G23    30.05R
AITKIN         CLOUDY    68  61  77 N12       30.05R
PINE RIVER     PTSUNNY   70  57  64 N12       30.10R
BRAINERD       MOSUNNY   71  56  58 NE17G24   30.05R
STAPLES        MOSUNNY   72  57  60 N13       30.06S
LONG PRAIRIE   LGT RAIN  70  59  68 NW16G32   30.07R
LITTLE FALLS   MOSUNNY   72  55  56 NW7G16    30.04R
LITCHFIELD     MOSUNNY   75  63  64 NW15G22   30.04R
BUFFALO        PTSUNNY   76  55  48 N17       30.01R
MAPLE LAKE     PTSUNNY   75  61  60 N15       30.02R
$$
MNZ037-044-045-052-053-272300-
   East Central Minnesota

CITY           SKY/WX    TMP DP  RH WIND       PRES   REMARKS
PRINCETON      PTSUNNY   68  63  83 N13       30.03R
MORA           MOSUNNY   64  59  82 N5        30.05R
CAMBRIDGE      MOSUNNY   70  57  64 NW9       30.00R
RUSH CITY      PTSUNNY   69  59  69 N13G20    30.02R
MOOSE LAKE     CLOUDY    59  55  88 NE5       30.05R
HINCKLEY       CLOUDY    64  59  82 N10       30.04R
CLOQUET        CLOUDY    57  54  88 E6        30.07R
MCGREGOR       CLOUDY    63  59  88 E3        30.06R
$$
MNZ071>073-080-081-089-090-097-098-272300-
   Southwest Minnesota

CITY           SKY/WX    TMP DP  RH WIND       PRES   REMARKS
MONTEVIDEO     CLOUDY    72  59  64 N21G26    30.11R
GRANITE FALLS  PTSUNNY   70  59  69 NW18G24   30.11S
CANBY          CLOUDY    71  57  60 NW15G21   30.15R
MARSHALL       PTSUNNY   70  55  60 N22G29    30.11R
REDWOOD FALLS  MOSUNNY   74  58  57 NW20G26   30.06R
OLIVIA         MOSUNNY   72  59  64 NW18G29   30.06R
PIPESTONE      CLOUDY    66  55  68 N20G25    30.16R
WINDOM         MOSUNNY   72  57  60 NW21      30.09R
WORTHINGTON    PTSUNNY   70  55  60 NW20G28   30.13R
JACKSON        MOSUNNY   72  55  56 NW18G29   30.09R
TRACY          CLOUDY    69  58  68 NW16G23   30.12R
SLAYTON        CLOUDY    67  56  67 NW17G23   30.14R
$$
MNZ065>067-074>077-082>085-091>093-272300-
   South Central Minnesota

CITY           SKY/WX    TMP DP  RH WIND       PRES   REMARKS
MANKATO        CLOUDY    68  59  73 NW15      30.01R
NEW ULM        MOSUNNY   73  61  64 NW25      30.03R
ST JAMES       MOSUNNY   73  57  56 NW21G31   30.05R
FAIRMONT       PTSUNNY   73  57  56 NW20G28   30.04R
GLENCOE        MOSUNNY   71  60  70 NW13      30.01R
FARIBAULT      PTSUNNY   79  54  41 NW10G18   29.98R
OWATONNA       MOSUNNY   75  57  53 NW16      29.98R
WASECA         PTSUNNY   72  55  56 NW23G29   30.01R
ALBERT LEA     MOSUNNY   73  61  64 NW12G17   29.99R
$$
MNZ078>079-086>088-094>096-272300-
   Southeast Minnesota

CITY           SKY/WX    TMP DP  RH WIND       PRES   REMARKS
ROCHESTER      MOSUNNY   72  57  59 N15G23    29.96R
RED WING       MOSUNNY   70  61  73 N7G17     29.94R
STANTON        MOSUNNY   76  59  55 N14G20    29.95R
DODGE CENTER   PTSUNNY   73  61  64 N13       29.97R
WINONA         MOSUNNY   75  61  60 NW18      29.90R
AUSTIN         PTSUNNY   73  61  64 NW15G24   29.97R
PRESTON        MOSUNNY   71  61  71 NW15G26   29.94R
$$
ABBREVIATIONS USED IN REMARKS
   TC - TEMPERATURES IN CELSIUS
  WCI - WIND CHILL INDEX
   HX - HEAT INDEX
  VSB - VISIBILITY
$$



USA.gov is the U.S. government's official web portal to all federal, state and local government web resources and services.